Location: Bergnershof
(48.9468°N, 10.9431°E)
Time: 00:15:17
(UTC+00:00)

USA 234 - Pass Details

Date: 03 March 2021
Orbit: 1102 x 1105 km, 123.0° (Epoch: 13 April)

Event Time Altitude Azimuth Distance (km) Brightness Sun altitude
Exits shadow 19:39:57 42° 60° (ENE) 1,538 3.7 -26.1°
Maximum altitude 19:42:28 86° 146° (SE) 1,111 3.1 -26.5°
Drops below altitude 10° 19:49:02 10° 236° (SW) 2,957 5.9 -27.5°
Sets 19:51:30 0° 236° (WSW) 3,913 6.6 -27.9°
